Location: Ca�n Batista
(41.4099°N, 1.7752°E)
Time: 13:41:15
(UTC+00:00)

ASTEX 1 - Pass Details

Date: 03 March 2021
Orbit: 721 x 742 km, 92.7° (Epoch: 21 April)

Event Time Altitude Azimuth Distance (km) Brightness Sun altitude
Rises 19:21:55 0° 11° (NNE) 3,146 6.7 -18.7°
Reaches altitude 10° 19:24:18 10° 18° (NNE) 2,219 5.8 -19.2°
Maximum altitude 19:29:01 47° 92° (E) 955 3.5 -20.1°
Enters shadow 19:30:10 39° 130° (SE) 1,071 3.8 -20.3°
